nws-alerts: Checking more than four warning/county codes can delay the loading of your pages. You should use a cron job to get the data.
EllijayWeather Station Historical Data
Daily Summary for November 17, 2018 Units:  English    Metric   Both
Daily Weekly Monthly Yearly Custom
  High: Low: Average:
Temperature: 61.3 °F 28.8 °F 41.8 °F
Dew Point: 45.5 °F 16.2 °F 28.6 °F
Humidity: 76% 44% 60%
Wind Speed: 2.9mph 0.0mph 0mph
Wind Gust: 4.0mph - -
Wind- - West
Pressure: 30.34 in 30.27 in -
Precipitation: 0.00 in    
Historical Graphs
 
 
Tabular Data for November 17, 2018
Time Temperature Dew Point Pressure Wind Wind Speed Wind Gust Humidity Rainfall Rate (Hourly) solar
00:04 31.6 °F 19.4 °F 30.27 in Calm     60% 0.00 in meteobridge W/m2
00:09 31.5 °F 19.2 °F 30.27 in Calm     60% 0.00 in meteobridge W/m2
00:14 31.5 °F 19.2 °F 30.27 in Calm     60% 0.00 in meteobridge W/m2
00:19 31.5 °F 19.2 °F 30.27 in Calm     60% 0.00 in meteobridge W/m2
00:24 31.3 °F 19.0 °F 30.27 in Calm     60% 0.00 in meteobridge W/m2
00:29 31.3 °F 19.0 °F 30.27 in Calm     60% 0.00 in meteobridge W/m2
00:34 31.3 °F 19.0 °F 30.27 in Calm     60% 0.00 in meteobridge W/m2
00:39 31.3 °F 19.0 °F 30.27 in Calm     60% 0.00 in meteobridge W/m2
00:42 31.3 °F 19.0 °F 30.27 in Calm     60% 0.00 in meteobridge W/m2
00:49 31.3 °F 19.0 °F 30.27 in Calm     60% 0.00 in meteobridge W/m2
00:54 31.3 °F 19.0 °F 30.27 in Calm     60% 0.00 in meteobridge W/m2
00:59 31.3 °F 18.7 °F 30.27 in Calm     59% 0.00 in meteobridge W/m2
01:03 31.3 °F 18.7 °F 30.27 in Calm     59% 0.00 in meteobridge W/m2
01:09 31.3 °F 18.7 °F 30.28 in Calm     59% 0.00 in meteobridge W/m2
01:14 31.5 °F 18.9 °F 30.28 in Calm     59% 0.00 in meteobridge W/m2
01:19 31.5 °F 18.9 °F 30.28 in Calm     59% 0.00 in meteobridge W/m2
01:24 31.5 °F 18.9 °F 30.28 in Calm     59% 0.00 in meteobridge W/m2
01:29 31.3 °F 18.7 °F 30.28 in Calm     59% 0.00 in meteobridge W/m2
01:34 31.3 °F 18.7 °F 30.28 in Calm     59% 0.00 in meteobridge W/m2
01:39 31.3 °F 18.7 °F 30.28 in Calm     59% 0.00 in meteobridge W/m2
01:44 31.3 °F 18.7 °F 30.28 in Calm     59% 0.00 in meteobridge W/m2
01:49 31.3 °F 18.7 °F 30.28 in Calm     59% 0.00 in meteobridge W/m2
01:54 31.1 °F 18.5 °F 30.28 in Calm     59% 0.00 in meteobridge W/m2
01:59 31.3 °F 18.7 °F 30.28 in Calm     59% 0.00 in meteobridge W/m2
02:04 31.3 °F 18.7 °F 30.28 in Calm     59% 0.00 in meteobridge W/m2
02:09 31.3 °F 18.7 °F 30.28 in Calm     59% 0.00 in meteobridge W/m2
02:14 31.1 °F 18.5 °F 30.28 in Calm     59% 0.00 in meteobridge W/m2
02:19 31.1 °F 18.1 °F 30.28 in Calm     58% 0.00 in meteobridge W/m2
02:24 31.1 °F 18.1 °F 30.28 in Calm     58% 0.00 in meteobridge W/m2
02:29 31.1 °F 18.1 °F 30.28 in Calm     58% 0.00 in meteobridge W/m2
02:34 31.1 °F 18.1 °F 30.28 in Calm     58% 0.00 in meteobridge W/m2
02:39 30.9 °F 18.3 °F 30.28 in Calm     59% 0.00 in meteobridge W/m2
02:44 30.9 °F 18.3 °F 30.28 in Calm     59% 0.00 in meteobridge W/m2
02:49 30.9 °F 18.3 °F 30.28 in Calm     59% 0.00 in meteobridge W/m2
02:54 30.7 °F 18.1 °F 30.28 in Calm     59% 0.00 in meteobridge W/m2
02:59 30.7 °F 18.1 °F 30.28 in Calm     59% 0.00 in meteobridge W/m2
03:04 30.7 °F 18.1 °F 30.28 in Calm     59% 0.00 in meteobridge W/m2
03:09 30.7 °F 18.1 °F 30.28 in Calm     59% 0.00 in meteobridge W/m2
03:14 30.6 °F 18.0 °F 30.28 in Calm     59% 0.00 in meteobridge W/m2
03:19 30.6 °F 18.0 °F 30.28 in Calm     59% 0.00 in meteobridge W/m2
03:24 30.6 °F 18.0 °F 30.28 in Calm     59% 0.00 in meteobridge W/m2
03:29 30.4 °F 17.8 °F 30.28 in Calm     59% 0.00 in meteobridge W/m2
03:34 30.4 °F 17.8 °F 30.28 in Calm     59% 0.00 in meteobridge W/m2
03:39 30.4 °F 17.8 °F 30.28 in Calm     59% 0.00 in meteobridge W/m2
03:44 30.4 °F 17.8 °F 30.28 in Calm     59% 0.00 in meteobridge W/m2
03:49 30.2 °F 17.6 °F 30.28 in Calm     59% 0.00 in meteobridge W/m2
03:54 30.2 °F 17.6 °F 30.28 in Calm     59% 0.00 in meteobridge W/m2
03:59 30.2 °F 17.6 °F 30.28 in Calm     59% 0.00 in meteobridge W/m2
04:04 30.0 °F 17.4 °F 30.28 in Calm     59% 0.00 in meteobridge W/m2
04:09 30.0 °F 17.4 °F 30.28 in Calm     59% 0.00 in meteobridge W/m2
04:14 30.0 °F 17.4 °F 30.28 in Calm     59% 0.00 in meteobridge W/m2
04:19 30.0 °F 17.4 °F 30.28 in Calm     59% 0.00 in meteobridge W/m2
04:24 29.8 °F 17.2 °F 30.29 in Calm     59% 0.00 in meteobridge W/m2
04:29 29.8 °F 17.2 °F 30.29 in Calm     59% 0.00 in meteobridge W/m2
04:34 29.7 °F 17.1 °F 30.29 in Calm     59% 0.00 in meteobridge W/m2
04:39 29.7 °F 17.1 °F 30.29 in Calm     59% 0.00 in meteobridge W/m2
04:44 29.7 °F 17.1 °F 30.29 in Calm     59% 0.00 in meteobridge W/m2
04:49 29.7 °F 17.1 °F 30.29 in Calm     59% 0.00 in meteobridge W/m2
04:54 29.5 °F 16.9 °F 30.29 in Calm     59% 0.00 in meteobridge W/m2
04:59 29.5 °F 16.9 °F 30.29 in Calm     59% 0.00 in meteobridge W/m2
05:04 29.5 °F 16.9 °F 30.29 in Calm     59% 0.00 in meteobridge W/m2
05:09 29.5 °F 16.9 °F 30.29 in Calm     59% 0.00 in meteobridge W/m2
05:14 29.5 °F 16.9 °F 30.29 in Calm     59% 0.00 in meteobridge W/m2
05:19 29.3 °F 16.7 °F 30.29 in Calm     59% 0.00 in meteobridge W/m2
05:24 29.3 °F 16.7 °F 30.29 in Calm     59% 0.00 in meteobridge W/m2
05:29 29.3 °F 16.7 °F 30.29 in Calm     59% 0.00 in meteobridge W/m2
05:34 29.1 °F 16.9 °F 30.29 in Calm     60% 0.00 in meteobridge W/m2
05:39 29.1 °F 16.9 °F 30.29 in Calm     60% 0.00 in meteobridge W/m2
05:44 29.1 °F 16.9 °F 30.30 in Calm     60% 0.00 in meteobridge W/m2
05:49 29.1 °F 16.9 °F 30.30 in Calm     60% 0.00 in meteobridge W/m2
05:53 28.9 °F 16.9 °F 30.30 in Calm     60% 0.00 in meteobridge W/m2
05:59 28.9 °F 16.9 °F 30.30 in Calm     60% 0.00 in meteobridge W/m2
06:04 28.9 °F 16.9 °F 30.30 in Calm     60% 0.00 in meteobridge W/m2
06:09 28.9 °F 16.3 °F 30.30 in Calm     59% 0.00 in meteobridge W/m2
06:14 28.9 °F 16.3 °F 30.30 in Calm     59% 0.00 in meteobridge W/m2
06:19 28.9 °F 16.3 °F 30.30 in Calm     59% 0.00 in meteobridge W/m2
06:24 28.9 °F 16.3 °F 30.30 in Calm     59% 0.00 in meteobridge W/m2
06:29 28.9 °F 16.3 °F 30.30 in Calm     59% 0.00 in meteobridge W/m2
06:34 28.9 °F 16.3 °F 30.30 in Calm     59% 0.00 in meteobridge W/m2
06:39 28.9 °F 16.3 °F 30.31 in Calm     59% 0.00 in meteobridge W/m2
06:44 28.9 °F 16.3 °F 30.31 in Calm     59% 0.00 in meteobridge W/m2
06:49 28.9 °F 16.3 °F 30.31 in Calm     59% 0.00 in meteobridge W/m2
06:54 28.8 °F 16.2 °F 30.31 in Calm     59% 0.00 in meteobridge W/m2
06:59 28.8 °F 16.2 °F 30.31 in Calm     59% 0.00 in meteobridge W/m2
07:04 28.8 °F 16.2 °F 30.31 in Calm     59% 0.00 in meteobridge W/m2
07:09 28.8 °F 16.2 °F 30.31 in Calm     59% 0.00 in meteobridge W/m2
07:13 28.8 °F 16.2 °F 30.31 in Calm     59% 0.00 in meteobridge W/m2
07:19 28.8 °F 16.2 °F 30.31 in Calm     59% 0.00 in meteobridge W/m2
07:24 28.8 °F 16.2 °F 30.31 in Calm     59% 0.00 in meteobridge W/m2
07:29 28.8 °F 16.2 °F 30.32 in Calm     59% 0.00 in meteobridge W/m2
07:34 28.8 °F 16.2 °F 30.32 in Calm     59% 0.00 in meteobridge W/m2
07:39 28.8 °F 16.2 °F 30.32 in Calm     59% 0.00 in meteobridge W/m2
07:44 28.8 °F 16.2 °F 30.32 in Calm     59% 0.00 in meteobridge W/m2
07:49 28.9 °F 16.3 °F 30.32 in Calm     59% 0.00 in meteobridge W/m2
07:54 28.9 °F 16.3 °F 30.32 in Calm     59% 0.00 in meteobridge W/m2
07:59 29.1 °F 16.5 °F 30.32 in Calm     59% 0.00 in meteobridge W/m2
08:04 29.3 °F 16.7 °F 30.33 in Calm     59% 0.00 in meteobridge W/m2
08:09 29.5 °F 16.9 °F 30.33 in Calm     59% 0.00 in meteobridge W/m2
08:13 29.7 °F 16.7 °F 30.33 in Calm     58% 0.00 in meteobridge W/m2
08:19 29.8 °F 16.9 °F 30.33 in Calm     58% 0.00 in meteobridge W/m2
08:24 30.0 °F 17.1 °F 30.33 in Calm     58% 0.00 in meteobridge W/m2
08:29 30.2 °F 17.2 °F 30.33 in Calm     58% 0.00 in meteobridge W/m2
08:34 30.4 °F 17.1 °F 30.33 in Calm     57% 0.00 in meteobridge W/m2
08:39 30.6 °F 17.1 °F 30.34 in Calm     57% 0.00 in meteobridge W/m2
08:44 30.9 °F 17.4 °F 30.34 in Calm     57% 0.00 in meteobridge W/m2
08:49 31.1 °F 17.6 °F 30.33 in Calm     57% 0.00 in meteobridge W/m2
08:54 31.5 °F 18.0 °F 30.33 in Calm     57% 0.00 in meteobridge W/m2
08:59 32.2 °F 18.3 °F 30.34 in Calm     56% 0.00 in meteobridge W/m2
09:04 32.5 °F 18.5 °F 30.34 in Calm     56% 0.00 in meteobridge W/m2
09:09 32.7 °F 18.7 °F 30.34 in Calm     56% 0.00 in meteobridge W/m2
09:14 33.1 °F 18.7 °F 30.34 in Calm     55% 0.00 in meteobridge W/m2
09:19 33.4 °F 19.0 °F 30.34 in Calm     55% 0.00 in meteobridge W/m2
09:24 34.2 °F 19.8 °F 30.34 in Calm     55% 0.00 in meteobridge W/m2
09:29 35.1 °F 20.1 °F 30.34 in Calm     54% 0.00 in meteobridge W/m2
09:34 36.0 °F 21.0 °F 30.34 in Calm     54% 0.00 in meteobridge W/m2
09:39 36.9 °F 21.4 °F 30.34 in Calm     53% 0.00 in meteobridge W/m2
09:44 38.5 °F 22.5 °F 30.34 in Calm     52% 0.00 in meteobridge W/m2
09:49 39.6 °F 23.0 °F 30.34 in Calm     51% 0.00 in meteobridge W/m2
09:54 40.3 °F 23.5 °F 30.34 in Calm     51% 0.00 in meteobridge W/m2
09:59 40.8 °F 24.1 °F 30.34 in Calm     51% 0.00 in meteobridge W/m2
10:04 41.4 °F 24.1 °F 30.34 in Calm     50% 0.00 in meteobridge W/m2
10:09 41.7 °F 24.4 °F 30.34 in Calm     50% 0.00 in meteobridge W/m2
10:14 42.4 °F 25.2 °F 30.34 in Calm     50% 0.00 in meteobridge W/m2
10:19 43.0 °F 25.2 °F 30.34 in Calm     49% 0.00 in meteobridge W/m2
10:24 43.3 °F 25.5 °F 30.34 in Calm     49% 0.00 in meteobridge W/m2
10:29 44.1 °F 25.7 °F 30.34 in Calm     48% 0.00 in meteobridge W/m2
10:34 44.6 °F 26.6 °F 30.34 in Calm     49% 0.00 in meteobridge W/m2
10:39 45.5 °F 28.4 °F 30.33 in Calm     51% 0.00 in meteobridge W/m2
10:44 46.6 °F 30.7 °F 30.33 in Calm     54% 0.00 in meteobridge W/m2
10:49 47.5 °F 36.3 °F 30.33 in Calm     65% 0.00 in meteobridge W/m2
10:54 48.4 °F 37.9 °F 30.33 in Calm     67% 0.00 in meteobridge W/m2
10:59 48.9 °F 40.6 °F 30.33 in Calm   1.0 mph 73% 0.00 in meteobridge W/m2
11:04 49.6 °F 41.7 °F 30.33 in Calm     74% 0.00 in meteobridge W/m2
11:09 50.2 °F 42.6 °F 30.33 in Calm     75% 0.00 in meteobridge W/m2
11:14 50.5 °F 43.3 °F 30.32 in WNW 0.9 mph 1.0 mph 76% 0.00 in meteobridge W/m2
11:19 51.3 °F 43.5 °F 30.33 in Calm   2.0 mph 75% 0.00 in meteobridge W/m2
11:24 52.2 °F 43.0 °F 30.33 in Calm   2.0 mph 71% 0.00 in meteobridge W/m2
11:29 52.7 °F 43.2 °F 30.33 in Calm     70% 0.00 in meteobridge W/m2
11:34 53.2 °F 41.7 °F 30.32 in Calm     65% 0.00 in meteobridge W/m2
11:39 54.0 °F 41.7 °F 30.32 in NW 2.0 mph 4.0 mph 63% 0.00 in meteobridge W/m2
11:44 54.7 °F 38.8 °F 30.32 in Calm   3.0 mph 55% 0.00 in meteobridge W/m2
11:49 55.2 °F 39.7 °F 30.32 in Calm   1.0 mph 56% 0.00 in meteobridge W/m2
11:53 55.8 °F 39.4 °F 30.32 in Calm     54% 0.00 in meteobridge W/m2
11:59 56.5 °F 39.6 °F 30.31 in NNW 0.9 mph 3.0 mph 53% 0.00 in meteobridge W/m2
12:04 56.8 °F 40.8 °F 30.31 in Calm   3.0 mph 55% 0.00 in meteobridge W/m2
12:09 57.4 °F 40.8 °F 30.31 in Calm     54% 0.00 in meteobridge W/m2
12:14 57.7 °F 40.3 °F 30.30 in Calm   3.0 mph 52% 0.00 in meteobridge W/m2
12:19 57.9 °F 40.8 °F 30.30 in Calm     53% 0.00 in meteobridge W/m2
12:24 58.3 °F 40.8 °F 30.30 in Calm   3.0 mph 52% 0.00 in meteobridge W/m2
12:29 58.5 °F 40.8 °F 30.30 in Calm     52% 0.00 in meteobridge W/m2
12:34 58.6 °F 42.1 °F 30.29 in North 2.0 mph 2.0 mph 54% 0.00 in meteobridge W/m2
12:39 59.2 °F 42.6 °F 30.29 in Calm   1.0 mph 54% 0.00 in meteobridge W/m2
12:44 59.2 °F 41.5 °F 30.29 in Calm     52% 0.00 in meteobridge W/m2
12:49 59.4 °F 42.8 °F 30.29 in Calm     54% 0.00 in meteobridge W/m2
12:54 59.4 °F 42.8 °F 30.29 in Calm     54% 0.00 in meteobridge W/m2
12:59 59.4 °F 41.2 °F 30.29 in NW 0.9 mph 1.0 mph 51% 0.00 in meteobridge W/m2
13:04 59.4 °F 39.2 °F 30.29 in Calm   2.0 mph 47% 0.00 in meteobridge W/m2
13:09 59.4 °F 39.2 °F 30.29 in Calm   1.0 mph 47% 0.00 in meteobridge W/m2
13:14 59.5 °F 39.4 °F 30.29 in Calm     47% 0.00 in meteobridge W/m2
13:19 59.5 °F 38.7 °F 30.28 in Calm     46% 0.00 in meteobridge W/m2
13:24 59.7 °F 37.8 °F 30.28 in NNW 0.9 mph 1.0 mph 44% 0.00 in meteobridge W/m2
13:29 59.7 °F 37.8 °F 30.28 in Calm     44% 0.00 in meteobridge W/m2
13:34 59.7 °F 39.4 °F 30.27 in Calm   1.0 mph 47% 0.00 in meteobridge W/m2
13:39 59.9 °F 39.6 °F 30.27 in Calm     47% 0.00 in meteobridge W/m2
13:44 60.1 °F 38.1 °F 30.27 in NNE 0.9 mph 1.0 mph 44% 0.00 in meteobridge W/m2
13:49 60.3 °F 38.8 °F 30.27 in Calm   3.0 mph 45% 0.00 in meteobridge W/m2
13:53 60.4 °F 39.6 °F 30.27 in Calm   1.0 mph 46% 0.00 in meteobridge W/m2
13:59 60.6 °F 39.2 °F 30.27 in Calm   2.0 mph 45% 0.00 in meteobridge W/m2
14:03 61.0 °F 42.8 °F 30.27 in Calm     51% 0.00 in meteobridge W/m2
14:09 61.2 °F 39.7 °F 30.27 in Calm   1.0 mph 45% 0.00 in meteobridge W/m2
14:14 61.3 °F 39.2 °F 30.27 in Calm     44% 0.00 in meteobridge W/m2
14:19 61.3 °F 41.5 °F 30.27 in Calm   1.0 mph 48% 0.00 in meteobridge W/m2
14:24 61.3 °F 43.5 °F 30.27 in Calm   1.0 mph 52% 0.00 in meteobridge W/m2
14:29 61.2 °F 43.0 °F 30.27 in Calm   1.0 mph 51% 0.00 in meteobridge W/m2
14:34 61.2 °F 43.9 °F 30.27 in Calm     53% 0.00 in meteobridge W/m2
14:39 61.0 °F 44.8 °F 30.27 in Calm     55% 0.00 in meteobridge W/m2
14:44 61.0 °F 44.2 °F 30.27 in Calm   4.0 mph 54% 0.00 in meteobridge W/m2
14:49 60.6 °F 43.3 °F 30.27 in Calm   4.0 mph 53% 0.00 in meteobridge W/m2
14:54 60.6 °F 43.3 °F 30.27 in Calm     53% 0.00 in meteobridge W/m2
14:59 60.6 °F 44.4 °F 30.27 in WNW 2.9 mph 3.0 mph 55% 0.00 in meteobridge W/m2
15:04 60.4 °F 44.2 °F 30.27 in NNW 2.0 mph 2.0 mph 55% 0.00 in meteobridge W/m2
15:09 60.3 °F 43.0 °F 30.27 in Calm     53% 0.00 in meteobridge W/m2
15:14 60.3 °F 43.5 °F 30.27 in Calm   1.0 mph 54% 0.00 in meteobridge W/m2
15:19 60.1 °F 43.3 °F 30.27 in Calm   3.0 mph 54% 0.00 in meteobridge W/m2
15:24 60.1 °F 44.4 °F 30.27 in Calm     56% 0.00 in meteobridge W/m2
15:29 59.9 °F 45.5 °F 30.27 in Calm   1.0 mph 59% 0.00 in meteobridge W/m2
15:34 59.5 °F 44.2 °F 30.27 in Calm   1.0 mph 57% 0.00 in meteobridge W/m2
15:39 59.4 °F 43.2 °F 30.27 in Calm   2.0 mph 55% 0.00 in meteobridge W/m2
15:44 59.0 °F 44.2 °F 30.27 in Calm     58% 0.00 in meteobridge W/m2
15:49 58.6 °F 43.5 °F 30.27 in Calm   3.0 mph 57% 0.00 in meteobridge W/m2
15:54 58.5 °F 43.7 °F 30.27 in Calm     58% 0.00 in meteobridge W/m2
15:59 58.3 °F 42.3 °F 30.27 in Calm   3.0 mph 55% 0.00 in meteobridge W/m2
16:04 57.9 °F 42.3 °F 30.28 in Calm     56% 0.00 in meteobridge W/m2
16:09 57.7 °F 42.1 °F 30.28 in Calm     56% 0.00 in meteobridge W/m2
16:14 57.6 °F 41.9 °F 30.28 in Calm     56% 0.00 in meteobridge W/m2
16:19 57.2 °F 43.0 °F 30.27 in Calm     59% 0.00 in meteobridge W/m2
16:24 56.8 °F 41.7 °F 30.28 in Calm     57% 0.00 in meteobridge W/m2
16:29 56.7 °F 41.5 °F 30.28 in Calm     57% 0.00 in meteobridge W/m2
16:34 56.5 °F 41.9 °F 30.28 in Calm     58% 0.00 in meteobridge W/m2
16:39 56.1 °F 41.9 °F 30.28 in Calm     59% 0.00 in meteobridge W/m2
16:44 55.8 °F 41.2 °F 30.28 in North 0.9 mph 1.0 mph 58% 0.00 in meteobridge W/m2
16:49 55.6 °F 41.9 °F 30.28 in Calm     60% 0.00 in meteobridge W/m2
16:54 55.0 °F 42.3 °F 30.28 in Calm     62% 0.00 in meteobridge W/m2
16:59 54.7 °F 42.3 °F 30.28 in Calm     63% 0.00 in meteobridge W/m2
17:04 54.3 °F 42.8 °F 30.28 in Calm     65% 0.00 in meteobridge W/m2
17:09 54.0 °F 42.4 °F 30.28 in Calm     65% 0.00 in meteobridge W/m2
17:14 53.6 °F 43.0 °F 30.28 in Calm     67% 0.00 in meteobridge W/m2
17:18 53.2 °F 42.3 °F 30.28 in Calm     66% 0.00 in meteobridge W/m2
17:24 52.9 °F 41.9 °F 30.28 in Calm     66% 0.00 in meteobridge W/m2
17:29 52.5 °F 41.5 °F 30.28 in Calm     66% 0.00 in meteobridge W/m2
17:34 52.2 °F 41.5 °F 30.28 in Calm     67% 0.00 in meteobridge W/m2
17:39 51.6 °F 41.4 °F 30.28 in Calm     68% 0.00 in meteobridge W/m2
17:44 51.3 °F 41.4 °F 30.28 in Calm     69% 0.00 in meteobridge W/m2
17:49 50.9 °F 41.5 °F 30.28 in Calm     70% 0.00 in meteobridge W/m2
17:54 50.4 °F 41.7 °F 30.28 in Calm     72% 0.00 in meteobridge W/m2
17:58 49.8 °F 41.5 °F 30.28 in Calm     73% 0.00 in meteobridge W/m2
18:04 49.5 °F 41.2 °F 30.28 in Calm     73% 0.00 in meteobridge W/m2
18:09 48.9 °F 40.6 °F 30.29 in Calm     73% 0.00 in meteobridge W/m2
18:14 48.6 °F 40.6 °F 30.28 in Calm     74% 0.00 in meteobridge W/m2
18:19 48.0 °F 40.5 °F 30.28 in Calm     75% 0.00 in meteobridge W/m2
18:24 47.7 °F 40.1 °F 30.28 in Calm     75% 0.00 in meteobridge W/m2
18:29 47.5 °F 39.9 °F 30.28 in Calm     75% 0.00 in meteobridge W/m2
18:34 47.1 °F 39.6 °F 30.28 in Calm     75% 0.00 in meteobridge W/m2
18:39 46.8 °F 39.2 °F 30.28 in Calm     75% 0.00 in meteobridge W/m2
18:44 46.6 °F 39.0 °F 30.28 in Calm     75% 0.00 in meteobridge W/m2
18:49 46.2 °F 38.7 °F 30.28 in Calm     75% 0.00 in meteobridge W/m2
18:54 46.0 °F 38.5 °F 30.28 in Calm     75% 0.00 in meteobridge W/m2
18:59 45.7 °F 38.3 °F 30.29 in Calm     75% 0.00 in meteobridge W/m2
19:04 45.5 °F 37.8 °F 30.29 in Calm     74% 0.00 in meteobridge W/m2
19:09 45.1 °F 37.4 °F 30.29 in Calm     74% 0.00 in meteobridge W/m2
19:14 45.0 °F 36.9 °F 30.28 in Calm     73% 0.00 in meteobridge W/m2
19:19 44.8 °F 37.0 °F 30.29 in Calm     74% 0.00 in meteobridge W/m2
19:24 44.4 °F 36.3 °F 30.29 in Calm     73% 0.00 in meteobridge W/m2
19:29 44.2 °F 35.8 °F 30.29 in Calm     72% 0.00 in meteobridge W/m2
19:34 44.1 °F 35.6 °F 30.29 in Calm     72% 0.00 in meteobridge W/m2
19:39 43.9 °F 35.4 °F 30.29 in Calm     72% 0.00 in meteobridge W/m2
19:44 43.5 °F 34.7 °F 30.29 in Calm     71% 0.00 in meteobridge W/m2
19:49 43.3 °F 34.5 °F 30.29 in Calm     71% 0.00 in meteobridge W/m2
19:54 43.3 °F 34.2 °F 30.30 in Calm     70% 0.00 in meteobridge W/m2
19:59 43.2 °F 33.6 °F 30.30 in Calm     69% 0.00 in meteobridge W/m2
20:04 43.0 °F 33.4 °F 30.30 in Calm     69% 0.00 in meteobridge W/m2
20:09 42.6 °F 32.7 °F 30.30 in Calm     68% 0.00 in meteobridge W/m2
20:14 42.4 °F 32.2 °F 30.30 in Calm     67% 0.00 in meteobridge W/m2
20:19 42.4 °F 32.2 °F 30.31 in Calm     67% 0.00 in meteobridge W/m2
20:24 42.3 °F 32.2 °F 30.31 in Calm     67% 0.00 in meteobridge W/m2
20:29 42.1 °F 31.5 °F 30.31 in Calm     66% 0.00 in meteobridge W/m2
20:34 41.9 °F 31.5 °F 30.31 in Calm     66% 0.00 in meteobridge W/m2
20:39 41.7 °F 31.3 °F 30.31 in Calm     66% 0.00 in meteobridge W/m2
20:44 41.5 °F 30.7 °F 30.31 in Calm     65% 0.00 in meteobridge W/m2
20:49 41.5 °F 30.7 °F 30.32 in Calm     65% 0.00 in meteobridge W/m2
20:54 41.4 °F 30.0 °F 30.31 in Calm     64% 0.00 in meteobridge W/m2
20:59 41.4 °F 30.0 °F 30.31 in Calm     64% 0.00 in meteobridge W/m2
21:04 41.2 °F 30.0 °F 30.31 in Calm     64% 0.00 in meteobridge W/m2
21:09 41.0 °F 29.8 °F 30.31 in Calm     64% 0.00 in meteobridge W/m2
21:14 40.6 °F 29.1 °F 30.31 in Calm     63% 0.00 in meteobridge W/m2
21:19 40.6 °F 29.1 °F 30.31 in Calm     63% 0.00 in meteobridge W/m2
21:24 40.5 °F 28.9 °F 30.32 in Calm     63% 0.00 in meteobridge W/m2
21:29 40.5 °F 28.4 °F 30.32 in Calm     62% 0.00 in meteobridge W/m2
21:34 40.3 °F 28.2 °F 30.32 in Calm     62% 0.00 in meteobridge W/m2
21:39 40.1 °F 28.0 °F 30.32 in Calm     62% 0.00 in meteobridge W/m2
21:44 39.9 °F 28.0 °F 30.32 in Calm     62% 0.00 in meteobridge W/m2
21:49 39.7 °F 27.9 °F 30.32 in Calm     62% 0.00 in meteobridge W/m2
21:54 39.6 °F 27.7 °F 30.32 in Calm     62% 0.00 in meteobridge W/m2
21:59 39.6 °F 27.7 °F 30.32 in Calm     62% 0.00 in meteobridge W/m2
22:04 39.4 °F 27.1 °F 30.31 in Calm     61% 0.00 in meteobridge W/m2
22:09 39.4 °F 27.1 °F 30.31 in Calm     61% 0.00 in meteobridge W/m2
22:14 39.0 °F 26.8 °F 30.32 in Calm     61% 0.00 in meteobridge W/m2
22:19 39.0 °F 26.8 °F 30.32 in Calm     61% 0.00 in meteobridge W/m2
22:24 38.8 °F 26.6 °F 30.32 in Calm     61% 0.00 in meteobridge W/m2
22:29 38.8 °F 26.1 °F 30.32 in Calm     60% 0.00 in meteobridge W/m2
22:34 38.7 °F 26.1 °F 30.32 in Calm     60% 0.00 in meteobridge W/m2
22:39 38.5 °F 25.9 °F 30.32 in Calm     60% 0.00 in meteobridge W/m2
22:44 38.3 °F 25.7 °F 30.32 in Calm     60% 0.00 in meteobridge W/m2
22:49 38.1 °F 25.5 °F 30.32 in Calm     60% 0.00 in meteobridge W/m2
22:54 38.1 °F 25.5 °F 30.32 in Calm     60% 0.00 in meteobridge W/m2
22:59 38.1 °F 25.0 °F 30.32 in Calm     59% 0.00 in meteobridge W/m2
23:04 37.9 °F 25.0 °F 30.32 in Calm     59% 0.00 in meteobridge W/m2
23:09 37.9 °F 25.0 °F 30.32 in Calm     59% 0.00 in meteobridge W/m2
23:14 37.8 °F 24.8 °F 30.32 in Calm     59% 0.00 in meteobridge W/m2
23:19 37.6 °F 24.6 °F 30.32 in Calm     59% 0.00 in meteobridge W/m2
23:24 37.4 °F 24.4 °F 30.32 in Calm     59% 0.00 in meteobridge W/m2
23:29 37.2 °F 24.3 °F 30.32 in Calm     59% 0.00 in meteobridge W/m2
23:34 37.2 °F 24.3 °F 30.32 in Calm     59% 0.00 in meteobridge W/m2
23:39 37.2 °F 24.3 °F 30.32 in Calm     59% 0.00 in meteobridge W/m2
23:44 37.0 °F 24.1 °F 30.32 in Calm     59% 0.00 in meteobridge W/m2
23:49 37.0 °F 24.1 °F 30.32 in Calm     59% 0.00 in meteobridge W/m2
23:54 36.9 °F 23.9 °F 30.32 in Calm     59% 0.00 in meteobridge W/m2
23:59 36.9 °F 23.5 °F 30.32 in Calm     58% 0.00 in meteobridge W/m2
EllijayWeather
Compliments of Weather Underground - 2.5 mb